Stations météo

Publicité
Millau, France (7558): Température de l'air & dewpoint: 21.06.2019 12:00:00 - 27.06.2019 12:00:00 (CEST)Millau, France (7558): Température de l'air 5cm: 21.06.2019 12:00:00 - 27.06.2019 12:00:00 (CEST)Millau, France (7558): Température de l'air -20cm & Température de l'air -100cm: 21.06.2019 12:00:00 - 27.06.2019 12:00:00 (CEST)Millau, France (7558): Vitesse du vent & gusts: 21.06.2019 12:00:00 - 27.06.2019 12:00:00 (CEST)Millau, France (7558): Direction du vent: 21.06.2019 12:00:00 - 27.06.2019 12:00:00 (CEST)Millau, France (7558): reduced air pressure: 21.06.2019 12:00:00 - 27.06.2019 12:00:00 (CEST)Millau, France (7558): visibility: 21.06.2019 12:00:00 - 27.06.2019 12:00:00 (CEST)Millau, France (7558): Ensoleillement: 21.06.2019 12:00:00 - 27.06.2019 12:00:00 (CEST)Millau, France (7558): Quantités de précipitations: 21.06.2019 12:00:00 - 27.06.2019 12:00:00 (CEST)
Date & Time tt [°C] td [°C] tt 5cm [°C] tt -20cm [°C] tt -100cm [°C] ff [km/h] ff [knt] fx [km/h] fx [knt] dd ppp [hPa] vv [km] sd [min] rr [mm]
27.06.2019 12:00:00 - - - - - - - - - - - - - -
27.06.2019 11:00:00 30,5 11,5 36,6 20,7 17,7 8 4 13 7 SE 1018,6 20 60 0,0
27.06.2019 10:00:00 27,7 12,9 33,5 20,8 17,8 5 3 9 5 N 1019,4 20 60 0,0
27.06.2019 09:00:00 26,0 13,8 27,9 20,9 17,7 5 3 9 5 NE 1019,6 20 60 0,0
27.06.2019 08:00:00 23,6 12,3 21,1 21,0 17,7 6 4 14 8 NNE 1020,2 20 60 0,0
27.06.2019 07:00:00 21,8 11,5 19,0 21,1 17,7 8 4 16 9 NNE 1020,6 20 29 0,0
27.06.2019 06:00:00 22,4 10,5 18,6 21,2 17,7 8 4 12 6 NE 1020,5 20 0 0,0
27.06.2019 05:00:00 23,1 10,2 19,3 21,2 17,7 5 3 16 9 NE 1020,4 20 0 0,0
27.06.2019 04:00:00 24,5 10,0 21,9 21,3 17,7 8 4 17 9 E 1020,0 20 0 0,0
27.06.2019 03:00:00 24,7 9,8 20,2 21,3 17,6 6 3 12 6 ENE 1020,4 20 0 0,0
27.06.2019 02:00:00 24,6 10,8 - - - 8 4 16 9 ENE 1020,5 20 - -
27.06.2019 01:00:00 24,3 11,3 21,6 21,4 17,6 3 1 23 13 ENE 1020,8 20 0 0,0
27.06.2019 00:00:00 24,6 12,2 21,6 21,4 17,6 12 7 21 11 ESE 1020,8 20 0 0,0
26.06.2019 23:00:00 24,9 13,1 22,1 21,4 17,6 14 8 31 17 SE 1020,6 20 0 0,0
26.06.2019 22:00:00 26,0 12,8 24,6 21,3 17,6 20 11 34 19 ESE 1019,6 20 0 0,0
26.06.2019 21:00:00 27,2 12,0 25,9 21,2 17,6 17 9 43 23 SE 1018,9 20 46 0,0
26.06.2019 20:00:00 29,0 11,1 29,8 21,1 17,6 29 16 47 25 SE 1018,1 20 60 0,0
26.06.2019 19:00:00 30,4 14,1 33,3 20,9 17,5 24 13 49 27 SE 1017,5 20 60 0,0
26.06.2019 18:00:00 31,1 13,8 35,3 20,7 17,5 35 19 48 26 SSE 1017,4 20 60 0,0
26.06.2019 17:00:00 31,7 13,5 35,9 20,5 17,5 34 18 52 28 SE 1017,6 20 60 0,0
26.06.2019 16:00:00 31,9 12,7 36,9 20,4 17,5 37 20 55 30 SE 1017,9 20 60 0,0
26.06.2019 15:00:00 31,9 11,7 36,6 20,2 17,5 36 19 55 30 SSE 1018,0 20 60 0,0
26.06.2019 14:00:00 31,6 12,9 36,8 20,1 17,5 32 18 54 29 SE 1018,4 20 60 0,0
26.06.2019 13:00:00 30,2 13,5 34,7 20,0 17,5 33 18 51 28 SE 1019,0 20 60 0,0
26.06.2019 12:00:00 29,2 13,4 32,0 20,0 17,5 29 16 46 25 SE 1019,4 20 60 0,0
26.06.2019 11:00:00 28,2 12,5 30,1 20,0 17,5 26 14 46 25 SE 1019,8 20 60 0,0
26.06.2019 10:00:00 26,3 12,4 28,8 20,1 17,4 16 9 29 16 ESE 1020,4 19 60 0,0
26.06.2019 09:00:00 24,2 11,8 25,1 20,1 17,4 16 8 24 13 SE 1020,8 20 60 0,0
26.06.2019 08:00:00 22,5 10,9 20,6 20,2 17,4 8 5 23 13 ESE 1021,0 20 60 0,0
26.06.2019 07:00:00 21,0 11,1 19,0 20,3 17,4 13 7 32 17 ESE 1020,9 20 29 0,0
26.06.2019 06:00:00 20,7 11,3 19,0 20,4 17,4 13 7 32 17 ESE 1020,5 20 0 0,0
26.06.2019 05:00:00 20,8 10,3 19,0 20,5 17,4 13 7 26 14 SE 1020,2 20 0 0,0
26.06.2019 04:00:00 21,3 10,1 19,1 20,5 17,4 11 6 24 13 SE 1019,8 20 0 0,0
26.06.2019 03:00:00 21,7 9,2 19,6 20,6 17,4 9 5 33 18 ESE 1019,6 20 0 0,0
26.06.2019 02:00:00 22,4 9,5 20,7 20,6 17,4 15 8 36 19 ESE 1019,6 20 0 0,0
26.06.2019 01:00:00 22,6 9,7 20,9 20,6 17,4 18 10 31 17 ESE 1019,7 20 0 0,0
26.06.2019 00:00:00 23,1 9,8 21,8 20,6 17,3 19 10 40 21 ESE 1019,6 20 0 0,0
25.06.2019 23:00:00 23,7 10,0 22,1 20,6 17,4 24 13 45 25 ESE 1019,2 20 0 0,0
25.06.2019 22:00:00 24,0 9,6 21,9 20,6 17,3 27 14 41 22 ESE 1018,4 20 10 0,0
25.06.2019 21:00:00 24,9 7,5 24,0 20,5 17,3 26 14 41 22 SE 1018,0 20 60 0,0
25.06.2019 20:00:00 25,8 6,9 26,4 20,4 17,3 25 13 48 26 SSE 1017,6 20 56 0,0
25.06.2019 19:00:00 27,4 9,2 - - - 26 14 48 26 SE 1017,0 20 - 0,0
25.06.2019 18:00:00 28,2 6,9 31,5 20,1 17,3 32 17 65 35 SSE 1016,6 20 60 0,0
25.06.2019 17:00:00 29,2 10,3 32,3 19,9 17,3 32 18 62 33 SE 1016,0 20 60 0,0
25.06.2019 16:00:00 29,2 11,3 31,7 19,8 17,3 39 21 66 36 SE 1016,0 20 60 0,0
25.06.2019 15:00:00 29,7 10,3 33,1 19,7 17,3 37 20 67 36 SE 1015,8 20 60 0,0
25.06.2019 14:00:00 29,4 11,4 33,3 19,6 17,2 33 18 57 31 SE 1016,0 20 60 0,0
25.06.2019 13:00:00 27,7 11,7 30,0 19,6 17,3 35 19 54 29 SE 1016,6 20 58 0,0
25.06.2019 12:00:00 26,4 11,7 27,8 19,5 17,2 26 14 54 29 SE 1017,1 20 54 0,0
25.06.2019 11:00:00 24,7 11,6 25,2 19,6 17,3 35 19 62 34 SE 1017,3 20 33 0,0
25.06.2019 10:00:00 23,9 11,2 25,0 19,6 17,2 26 14 42 23 SE 1017,4 20 60 0,0
25.06.2019 09:00:00 21,8 10,9 19,4 19,7 17,2 22 12 36 19 SE 1017,9 20 54 0,0
25.06.2019 08:00:00 19,0 11,1 18,8 19,8 17,2 7 4 27 15 SE 1018,0 20 35 0,0
25.06.2019 07:00:00 18,3 10,9 16,0 19,9 17,2 15 8 30 16 SE 1017,8 20 30 0,0
25.06.2019 06:00:00 18,1 10,9 16,6 20,0 17,2 23 13 42 23 SE 1017,8 20 0 0,0
25.06.2019 05:00:00 18,2 9,8 16,4 20,1 17,2 18 10 32 17 SE 1017,2 20 0 0,0
25.06.2019 04:00:00 18,3 8,5 14,8 20,1 17,1 13 7 25 14 ESE 1017,1 20 0 0,0
25.06.2019 03:00:00 18,0 9,6 16,2 20,2 17,1 13 7 23 12 SE 1017,4 20 0 0,0
25.06.2019 02:00:00 18,3 10,9 16,8 20,3 17,2 14 7 29 15 ESE 1017,3 20 0 0,0
25.06.2019 01:00:00 18,7 11,0 17,0 20,4 17,1 12 6 36 20 ESE 1017,1 20 0 0,0
25.06.2019 00:00:00 19,3 11,1 18,0 20,4 17,1 23 13 36 19 SE 1016,7 20 0 0,0
24.06.2019 23:00:00 20,2 9,1 18,6 20,4 17,1 19 10 40 21 SE 1016,4 20 0 0,0
24.06.2019 22:00:00 20,8 9,1 19,5 20,4 17,1 19 10 41 22 SE 1015,9 20 9 0,0
24.06.2019 21:00:00 21,8 10,6 21,4 20,4 17,1 17 9 31 17 SE 1015,4 20 60 0,0
24.06.2019 20:00:00 23,1 11,8 23,6 20,2 17,1 22 12 43 23 SSE 1015,2 20 19 0,0
24.06.2019 19:00:00 23,9 10,9 24,5 20,2 17,1 27 15 49 26 SSE 1014,6 20 5 0,0
24.06.2019 18:00:00 24,9 10,7 26,4 20,0 17,1 25 13 47 25 SSE 1014,2 20 3 0,0
24.06.2019 17:00:00 25,2 9,5 27,3 19,9 17,1 30 16 50 27 SSE 1014,1 20 29 0,0
24.06.2019 16:00:00 25,7 11,1 28,8 19,7 17,0 30 16 51 28 SSE 1013,9 20 25 0,0
24.06.2019 15:00:00 26,7 11,2 - - - 34 18 63 34 SSE 1013,4 19 - 0,0
24.06.2019 14:00:00 26,8 10,9 32,5 19,5 17,0 28 15 51 28 SSE 1013,5 20 60 0,0
24.06.2019 13:00:00 25,9 11,6 29,5 19,5 17,0 32 17 60 32 SE 1013,7 20 60 0,0
24.06.2019 12:00:00 24,8 11,0 27,3 19,5 17,0 31 17 48 26 SSE 1014,2 20 48 0,0
24.06.2019 11:00:00 24,0 10,3 25,0 19,6 17,0 24 13 37 20 SE 1014,3 20 44 0,0
24.06.2019 10:00:00 22,2 11,0 21,6 19,6 17,0 19 10 29 15 SE 1014,9 20 36 0,0
24.06.2019 09:00:00 20,1 11,3 18,9 19,7 16,9 16 9 29 16 ESE 1015,5 20 20 0,0
24.06.2019 08:00:00 18,8 10,9 17,8 19,8 16,9 14 7 27 14 ESE 1015,4 20 22 0,0
24.06.2019 07:00:00 18,8 9,8 16,2 19,9 16,9 16 9 33 18 SE 1015,5 20 30 0,0
24.06.2019 06:00:00 19,7 9,8 17,0 20,0 16,9 10 6 31 17 E 1014,6 20 0 0,0
24.06.2019 05:00:00 18,8 12,3 16,5 20,1 16,9 10 5 17 9 ENE 1014,9 20 0 0,0
24.06.2019 04:00:00 18,2 13,7 16,2 20,2 16,9 6 3 16 8 NE 1015,3 20 0 0,0
24.06.2019 03:00:00 18,2 13,3 16,2 20,2 16,8 11 6 16 9 NE 1015,7 20 0 0,0
24.06.2019 02:00:00 19,6 12,8 16,1 20,3 16,9 3 1 10 6 NNE 1015,9 20 0 0,0
24.06.2019 01:00:00 19,8 13,0 16,5 20,4 16,8 4 2 10 5 NE 1015,8 20 0 0,0
24.06.2019 00:00:00 19,8 12,8 16,5 20,4 16,8 9 5 14 8 ESE 1015,7 20 0 0,0
23.06.2019 23:00:00 19,9 11,9 16,9 20,4 16,8 8 4 16 8 SE 1015,6 20 0 0,0
23.06.2019 22:00:00 21,0 12,2 - - - 15 8 18 10 SE 1014,5 20 - 0,0
23.06.2019 21:00:00 23,4 12,7 22,4 20,2 16,8 15 8 19 11 SE 1013,3 20 15 0,0
23.06.2019 20:00:00 24,8 13,4 25,1 20,0 16,8 14 7 20 11 SSE 1012,7 20 40 0,0
23.06.2019 19:00:00 26,6 13,0 30,0 19,8 16,8 15 8 25 13 S 1012,0 20 60 0,0
23.06.2019 18:00:00 27,6 11,6 32,6 19,7 16,8 9 5 22 12 SSE 1011,6 17 58 0,0
23.06.2019 17:00:00 26,8 12,1 31,7 19,4 16,8 11 6 27 14 S 1011,9 20 40 0,0
23.06.2019 16:00:00 - - - - - - - - - - - - - -
23.06.2019 15:00:00 26,1 13,2 30,1 19,1 16,8 13 7 26 14 SE 1011,9 20 34 0,0
23.06.2019 14:00:00 25,8 11,2 29,2 18,9 16,7 8 5 26 14 SSE 1012,3 20 29 0,0
23.06.2019 13:00:00 25,5 12,3 29,8 18,8 16,7 13 7 29 15 SSE 1012,0 20 60 0,0
23.06.2019 12:00:00 24,2 11,8 28,5 18,8 16,7 12 6 20 11 SE 1012,5 20 58 0,0
23.06.2019 11:00:00 22,6 12,8 - - - 9 5 21 11 SE 1013,0 20 - -
23.06.2019 10:00:00 21,3 12,7 24,0 18,9 16,7 5 3 16 9 ESE 1013,1 20 60 0,0
23.06.2019 09:00:00 18,6 13,5 20,8 19,0 16,7 4 2 8 4 N 1013,8 20 57 0,0
23.06.2019 08:00:00 16,3 13,0 15,5 19,0 16,6 6 4 11 6 NNE 1014,0 20 55 0,0
23.06.2019 07:00:00 15,4 12,5 12,4 19,2 16,6 6 3 12 6 NNE 1014,2 20 30 0,0
23.06.2019 06:00:00 13,9 12,1 11,9 19,3 16,7 7 4 10 6 NNE 1014,8 20 0 0,0
23.06.2019 05:00:00 14,4 12,4 11,9 19,4 16,6 3 1 8 5 NNE 1015,0 20 0 0,0
23.06.2019 04:00:00 14,8 12,5 12,5 19,5 16,6 5 3 8 4 NE 1014,8 20 0 0,0
23.06.2019 03:00:00 14,9 12,6 12,6 19,6 16,7 4 2 11 6 NNE 1015,1 20 0 0,0
23.06.2019 02:00:00 15,5 12,4 13,2 19,6 16,6 3 2 7 4 N 1015,0 20 0 0,0
23.06.2019 01:00:00 16,4 12,6 14,3 19,7 16,6 7 4 9 5 NE 1014,9 20 0 0,0
23.06.2019 00:00:00 16,8 12,1 - - - 5 3 9 5 NE 1014,9 20 - 0,0
22.06.2019 23:00:00 17,3 12,0 14,4 19,7 16,6 0 0 7 4 N 1014,9 20 0 0,0
22.06.2019 22:00:00 17,8 12,5 15,3 19,6 16,6 7 4 12 6 WSW 1014,5 20 9 0,0
22.06.2019 21:00:00 20,7 12,4 20,0 19,5 16,6 6 3 14 7 NNW 1013,2 20 60 0,0
22.06.2019 20:00:00 22,3 12,3 22,3 19,4 16,6 8 4 16 9 NW 1012,5 20 36 0,0
22.06.2019 19:00:00 23,2 12,2 25,5 19,2 16,6 8 4 24 13 WSW 1012,1 20 51 0,0
22.06.2019 18:00:00 22,7 11,4 28,1 19,0 16,6 5 3 23 12 NNW 1012,5 20 49 0,0
22.06.2019 17:00:00 22,9 11,9 27,5 18,8 16,6 14 7 27 14 W 1012,8 20 54 0,0
22.06.2019 16:00:00 22,6 11,9 22,8 18,5 16,6 9 5 29 16 WNW 1013,1 20 45 0,0
22.06.2019 15:00:00 21,7 12,3 25,8 18,3 16,6 9 5 25 13 W 1013,6 20 53 0,0
22.06.2019 14:00:00 20,7 12,7 27,2 18,2 16,6 10 5 30 16 W 1014,4 20 60 0,0
22.06.2019 13:00:00 19,9 12,4 26,2 18,1 16,6 14 8 23 13 SW 1014,9 20 60 0,0
22.06.2019 12:00:00 18,4 10,7 23,0 18,1 16,5 12 6 20 11 WSW 1015,6 20 52 0,0
22.06.2019 11:00:00 17,1 11,1 19,3 18,2 16,6 7 4 14 8 WNW 1016,0 20 35 0,0
22.06.2019 10:00:00 15,4 9,7 16,8 18,3 16,6 10 6 19 10 WNW 1016,9 20 17 0,0
22.06.2019 09:00:00 13,9 10,5 14,5 18,3 16,5 8 4 18 10 N 1017,4 20 4 0,0
22.06.2019 08:00:00 13,3 10,1 14,3 18,4 16,5 12 6 17 9 NW 1017,6 20 44 0,0
22.06.2019 07:00:00 12,2 9,9 9,5 18,6 16,5 8 4 11 6 N 1017,5 20 19 0,0
22.06.2019 06:00:00 11,5 9,7 9,9 18,7 16,5 3 2 10 5 WNW 1017,8 20 0 0,0
22.06.2019 05:00:00 11,9 9,8 10,0 18,7 16,5 3 2 18 10 NW 1017,8 20 0 0,0
22.06.2019 04:00:00 12,3 10,2 11,3 18,8 16,5 13 7 24 13 NNW 1018,1 20 0 0,0
22.06.2019 03:00:00 12,5 10,4 11,4 19,0 16,5 12 7 22 12 NW 1018,2 20 0 0,0
22.06.2019 02:00:00 13,4 10,7 12,5 19,0 16,5 16 9 24 13 WNW 1018,3 20 0 0,0
22.06.2019 01:00:00 13,4 10,6 12,7 19,0 16,5 16 9 27 14 NW 1018,5 20 0 0,0
22.06.2019 00:00:00 14,5 11,8 13,8 19,1 16,5 13 7 23 12 NW 1018,4 20 0 0,0
21.06.2019 23:00:00 14,6 11,4 13,9 19,1 16,4 14 7 27 14 NW 1018,1 20 0 0,0
21.06.2019 22:00:00 15,0 12,7 14,4 19,1 16,5 14 8 24 13 W 1017,4 20 9 0,0
21.06.2019 21:00:00 16,2 13,3 16,1 19,0 16,4 20 11 37 20 WSW 1016,3 20 56 0,0
21.06.2019 20:00:00 18,1 13,0 18,3 18,9 16,4 23 12 37 20 W 1015,2 20 27 0,0
21.06.2019 19:00:00 20,3 13,7 21,1 18,9 16,4 19 10 39 21 WNW 1013,9 20 37 0,0
21.06.2019 18:00:00 20,1 13,5 21,5 18,7 16,4 19 10 31 17 W 1013,8 20 21 0,0
21.06.2019 17:00:00 19,8 14,2 21,2 18,7 16,4 20 11 30 16 WNW 1013,9 20 24 0,0
21.06.2019 16:00:00 21,0 13,7 24,7 18,6 16,4 6 3 15 8 W 1013,8 20 22 0,0
21.06.2019 15:00:00 20,2 14,8 24,3 18,6 16,4 8 5 15 8 W 1014,5 20 2 0,0
21.06.2019 14:00:00 19,3 14,3 21,9 18,6 16,4 4 2 18 10 NW 1014,8 20 14 0,0
21.06.2019 13:00:00 17,2 14,7 17,6 18,5 16,4 8 4 12 6 NE 1015,4 20 0 0,0
21.06.2019 12:00:00 16,3 14,0 16,5 18,6 16,4 10 6 22 12 SW 1016,0 20 1 0,0

tt = Température de l'air
td = dewpoint
tt 5cm = Température de l'air 5cm
tt -20cm = Température de l'air -20cm
tt -100cm = Température de l'air -100cm
ff = Vitesse du vent
fx = gusts
dd = Direction du vent
ppp = reduced air pressure
vv = visibility
sd = Ensoleillement
rr = Quantités de précipitations

stations d'obs. à proximité